Location: Newark
(44.1667°N, 8.2500°E)
Time: 13:51:58
(UTC+00:00)

Transit 4A - Pass Details

Date: 12 December 2019
Orbit: 871 x 973 km, 66.8° (Epoch: 20 January)

Event Time Altitude Azimuth Distance (km) Brightness Sun altitude
Rises 16:55:09 0° 233° (SW) 3,602 12.7 -11.5°
Reaches altitude 10° 16:57:52 10° 241° (WSW) 2,645 11.8 -12.0°
Maximum altitude 17:03:39 41° 311° (NW) 1,306 8.9 -13.0°
Drops below altitude 10° 17:09:19 10° 21° (NNE) 2,590 9.9 -13.9°
Enters shadow 17:10:10 - 24° (NNE) 2,881 10.1 -14.1°
